STARLINK-6197, 56767

Orbit data source: Space-Track

STARLINK-6197, 56767 is a payload satellite owned by SpaceX/Seattle (US) in LEO that was launched on Wed, 31 May 2023 UTC via an FALCON 9 launch vehicle from the Air Force Western Test Range (AFWTR). Payload-class satellites include a variety of spacecraft equipped with specific instruments for various scientific and technological missions. These include communications satellites like Starlink; space stations such as the ISS; scientific satellites like the Hubble; Earth observation satellites from companies like Planet Labs, Umbra, and HawkEye 360; GPS; miniature CubeSats for education and research; and military/defense satellites.

Loading next visibility...
Identifier
56767, 2023-078A
Orbit
LEO
Last TLE update
18 hours ago
Origin
Manufacturer
SpaceX/Seattle
Mission
Operational Commercial Communications
Bus & Motor
STARLINK, Unknown motor
Mass
305 kg wet, ~290 kg dry
Launch date (UTC)
2023-05-31 (2 years ago)
Launch vehicle
FALCON 9
Launch site
Air Force Western Test Range (AFWTR)
Object type
Payload
Rocket body
Debris
Shape & HBR
Box + 1 Pan, 9 m
Radar Cross Section
11.087 m², Large (>1 m²)

Expand to show TLE details & history

TLE from 18 hours ago
0 STARLINK-6197
1 56767U 23078A   25131.20161524  .00010188  00000-0  74690-3 0  9991
2 56767  69.9998  46.0766 0006773 225.8044 134.2562 15.03730454107160
Epoch: 2025-05-11T04:50Z
Definitive object data (Epoch: 2025-05-11T04:50:19.556Z)
Latitude
-0.00005°
Longitude
104.26265°
Altitude
561.114 km
Speed
7.579 km/s
True Right ascension
03h 04m 18s
True Declination
0° 00' 00"
Sunlit
Object was in daylight at TLE epoch
Visualization TLE readout
Latitude
26.17673°
Longitude
112.63947°
Altitude
562.528 km
Speed
7.58 km/s
Apparent Right ascension
00h 14m 13s
Apparent Declination
-12° 17' 32"
Sunlit
Object is in daylight
Visualization observer readout
Local Sidereal Time
06:50:46
Azimuth
266.221° W
Elevation
-14.811°
Doppler factor
1
Orbital elements
Apogee altitude
558.043 km
Perigee altitude
548.654 km
Semi-major axis
6,931.486 km
Eccentricity
0.0006773
Inclination
69.9998°
RAAN
46.0766°
Arg. of periapsis
225.8044°
True anomaly
134.31176°
Mean anomaly
134.2562°
Eccentric anomaly
134.28398°
Mean motion
3.761 °/min
BSTAR
0.0007469
Orbital period
95.72 mins
Loading maneuver chart data...
Loading SW <> Apogee altitude chart data...
Loading historical data...
Loading historical data...
Loading historical data...
Loading historical data...
Loading historical data...
Loading historical data...
Loading historical data...

STARLINK-6197 Visibility forecast

Observer location: undefined°, undefined°

Span
Click to sort rows by Start time (UTC) header in descending order
Start Az.
Max El. time (UTC)
Max El. Az.
Max El.
End time (UTC)
End Az.
7 mins2025-05-12 05:20:24.997Z335.058° NNW2025-05-12 05:23:24.997Z323.995° NNW44.617°2025-05-12 05:27:24.997Z157.601° S
6 mins2025-05-12 19:17:24.997Z187.023° SSW2025-05-12 19:20:24.997Z108.167° ESE40.695°2025-05-12 19:23:24.997Z35.182° NE
|